,,,PA_Meas_PMT16A,,PR_Meas_QMR101_102,,RH_Meas_QMH101,,SR_Meas_QMS101,,TA_Meas_QMH101,,GenWind,,GenWind,
date,time,status,PA,status,PR,status,RH,status,SR,status,TA,status,DirAvg,status,SpdAvg,
2009-12-22, 00:00:04,VALID,1006.86,VALID,0,VALID,95.1779,VALID,0,VALID,22.8649,VALID,349,VALID,1.59102,
2009-12-22, 00:01:04,VALID,1006.83,VALID,0.5,VALID,95.1932,VALID,0,VALID,22.8455,VALID,331,VALID,1.04453,
2009-12-22, 00:02:04,VALID,1006.79,VALID,0,VALID,95.1855,VALID,0,VALID,22.8066,VALID,349,VALID,1.71133,
2009-12-22, 00:03:04,VALID,1006.74,VALID,0,VALID,95.1703,VALID,0,VALID,22.7677,VALID,349,VALID,0.807813,
2009-12-22, 00:04:04,VALID,1006.63,VALID,0,VALID,95.1474,VALID,0,VALID,22.7482,VALID,17,VALID,0.740234,
2009-12-22, 00:05:04,VALID,1006.53,VALID,0,VALID,95.1398,VALID,0,VALID,22.7305,VALID,355,VALID,0.417969,
2009-12-22, 00:06:04,VALID,1006.49,VALID,0,VALID,95.155,VALID,0,VALID,22.7093,VALID,354,VALID,0,
2009-12-22, 00:07:04,VALID,1006.45,VALID,0,VALID,95.1703,VALID,0,VALID,22.711,VALID,357,VALID,0.792969,
2009-12-22, 00:08:04,VALID,1006.46,VALID,0,VALID,95.1779,VALID,0,VALID,22.6898,VALID,336,VALID,0.449219,
2009-12-22, 00:09:04,VALID,1006.42,VALID,0,VALID,95.1779,VALID,0,VALID,22.6915,VALID,352,VALID,1.13555,
2009-12-22, 00:10:04,VALID,1006.39,VALID,0,VALID,95.1779,VALID,0,VALID,22.6704,VALID,3,VALID,1.19687,
2009-12-22, 00:11:04,VALID,1006.31,VALID,0,VALID,95.1932,VALID,0,VALID,22.711,VALID,7,VALID,1.05586,
2009-12-22, 00:12:04,VALID,1006.29,VALID,0,VALID,95.2084,VALID,0.100563,VALID,22.7093,VALID,12,VALID,1.20508,
2009-12-22, 00:13:04,VALID,1006.21,VALID,0.5,VALID,95.2237,VALID,0,VALID,22.7093,VALID,346,VALID,0.852344,
2009-12-22, 00:14:04,VALID,1006.16,VALID,0,VALID,95.2161,VALID,0,VALID,22.7287,VALID,353,VALID,1.00508,
2009-12-22, 00:15:04,VALID,1006.12,VALID,0,VALID,95.2313,VALID,0,VALID,22.7287,VALID,350,VALID,0.615625,
2009-12-22, 00:16:04,VALID,1006.09,VALID,0,VALID,95.2313,VALID,0,VALID,22.7694,VALID,341,VALID,0.540234,
2009-12-22, 00:17:04,VALID,1006.05,VALID,0,VALID,95.2313,VALID,0,VALID,22.7677,VALID,353,VALID,1.26172,
2009-12-22, 00:18:04,VALID,1006.02,VALID,0,VALID,95.2313,VALID,0,VALID,22.8083,VALID,340,VALID,0.640625,
2009-12-22, 00:19:04,VALID,1005.96,VALID,0,VALID,95.2389,VALID,0,VALID,22.8278,VALID,349,VALID,0.922656,
2009-12-22, 00:20:04,VALID,1005.93,VALID,0,VALID,95.2161,VALID,0,VALID,22.826,VALID,350,VALID,0.580469,
2009-12-22, 00:21:04,VALID,1005.91,VALID,0,VALID,95.2313,VALID,0,VALID,22.8455,VALID,353,VALID,0.647266,
2009-12-22, 00:22:04,VALID,1005.9,VALID,0,VALID,95.2161,VALID,0,VALID,22.8844,VALID,27,VALID,0.991406,
2009-12-22, 00:23:04,VALID,1005.89,VALID,0,VALID,95.2237,VALID,0,VALID,22.9039,VALID,3,VALID,0.258594,
2009-12-22, 00:24:04,VALID,1005.88,VALID,0,VALID,95.2161,VALID,0,VALID,22.9445,VALID,3,VALID,0.232031,
2009-12-22, 00:25:04,VALID,1005.85,VALID,0,VALID,95.2237,VALID,0,VALID,22.9622,VALID,3,VALID,0.301562,
2009-12-22, 00:26:04,VALID,1005.8,VALID,0,VALID,95.2084,VALID,0,VALID,22.9622,VALID,2,VALID,0.524609,
2009-12-22, 00:27:04,VALID,1005.81,VALID,0,VALID,95.2084,VALID,0,VALID,22.9622,VALID,6,VALID,0.373047,
2009-12-22, 00:28:04,VALID,1005.77,VALID,0,VALID,95.2008,VALID,0,VALID,23.0029,VALID,6,VALID,0.339844,
2009-12-22, 00:29:04,VALID,1005.72,VALID,0,VALID,95.1474,VALID,0,VALID,22.9834,VALID,19,VALID,0.569531,
2009-12-22, 00:30:04,VALID,1005.72,VALID,0,VALID,95.1627,VALID,0,VALID,22.9817,VALID,25,VALID,0.499609,
2009-12-22, 00:31:04,VALID,1005.72,VALID,0,VALID,95.1321,VALID,0,VALID,23.0029,VALID,34,VALID,0,
2009-12-22, 00:32:04,VALID,1005.71,VALID,0,VALID,95.1321,VALID,0,VALID,23.0029,VALID,34,VALID,0.00195313,
2009-12-22, 00:33:04,VALID,1005.68,VALID,0.5,VALID,95.1169,VALID,0,VALID,23.0029,VALID,343,VALID,0.197656,
2009-12-22, 00:34:04,VALID,1005.65,VALID,0,VALID,95.1016,VALID,0,VALID,22.9834,VALID,343,VALID,0,
2009-12-22, 00:35:04,VALID,1005.63,VALID,0,VALID,95.094,VALID,0,VALID,22.9622,VALID,343,VALID,0,
2009-12-22, 00:36:04,VALID,1005.59,VALID,0,VALID,95.0864,VALID,0,VALID,23.0029,VALID,343,VALID,0,
2009-12-22, 00:37:04,VALID,1005.6,VALID,0,VALID,95.1016,VALID,0,VALID,23.0029,VALID,343,VALID,0,
2009-12-22, 00:38:04,VALID,1005.55,VALID,0,VALID,95.094,VALID,0,VALID,23.0029,VALID,343,VALID,0,
2009-12-22, 00:39:04,VALID,1005.55,VALID,0,VALID,95.1169,VALID,0,VALID,22.9834,VALID,343,VALID,0.477344,
2009-12-22, 00:40:04,VALID,1005.55,VALID,0.5,VALID,95.1245,VALID,0,VALID,23.0029,VALID,343,VALID,0.389844,
2009-12-22, 00:41:04,VALID,1005.53,VALID,0,VALID,95.1016,VALID,0,VALID,22.9834,VALID,342,VALID,0.677344,
2009-12-22, 00:42:04,VALID,1005.54,VALID,0,VALID,95.1245,VALID,0,VALID,22.9622,VALID,1,VALID,0.476953,
2009-12-22, 00:43:04,VALID,1005.56,VALID,0,VALID,95.1245,VALID,0,VALID,22.964,VALID,360,VALID,0.657031,
2009-12-22, 00:44:04,VALID,1005.58,VALID,0,VALID,95.1245,VALID,0,VALID,22.9445,VALID,353,VALID,0.545313,
2009-12-22, 00:45:04,VALID,1005.59,VALID,0,VALID,95.1245,VALID,0,VALID,22.9233,VALID,353,VALID,0.364453,
2009-12-22, 00:46:04,VALID,1005.65,VALID,0.5,VALID,95.1703,VALID,0,VALID,22.9428,VALID,309,VALID,0.741406,
2009-12-22, 00:47:04,VALID,1005.64,VALID,0,VALID,95.1627,VALID,0,VALID,22.9622,VALID,328,VALID,0.472656,
2009-12-22, 00:48:04,VALID,1005.65,VALID,0,VALID,95.1855,VALID,0,VALID,22.9834,VALID,341,VALID,0.509766,
2009-12-22, 00:49:04,VALID,1005.68,VALID,0,VALID,95.2008,VALID,0,VALID,22.9834,VALID,308,VALID,0.446484,
2009-12-22, 00:50:04,VALID,1005.72,VALID,0.5,VALID,95.2161,VALID,0,VALID,22.964,VALID,357,VALID,1.09219,
2009-12-22, 00:51:04,VALID,1005.74,VALID,0,VALID,95.1932,VALID,0,VALID,22.9428,VALID,12,VALID,0.130469,
2009-12-22, 00:52:04,VALID,1005.76,VALID,0,VALID,95.2008,VALID,0,VALID,22.9445,VALID,12,VALID,0.405469,
2009-12-22, 00:53:04,VALID,1005.77,VALID,0,VALID,95.2161,VALID,0,VALID,22.9445,VALID,326,VALID,0.826563,
2009-12-22, 00:54:04,VALID,1005.79,VALID,0,VALID,95.2313,VALID,0,VALID,22.9445,VALID,316,VALID,0.569922,
2009-12-22, 00:55:04,VALID,1005.81,VALID,0.5,VALID,95.2161,VALID,0,VALID,22.9056,VALID,339,VALID,1.42656,
2009-12-22, 00:56:04,VALID,1005.84,VALID,0,VALID,95.2313,VALID,0,VALID,22.8861,VALID,355,VALID,1.46133,
2009-12-22, 00:57:04,VALID,1005.87,VALID,0,VALID,95.2237,VALID,0,VALID,22.8861,VALID,1,VALID,1.33008,
2009-12-22, 00:58:04,VALID,1005.88,VALID,0,VALID,95.2389,VALID,0,VALID,22.8649,VALID,293,VALID,1.03164,
2009-12-22, 00:59:04,VALID,1005.89,VALID,0,VALID,95.2237,VALID,0,VALID,22.8455,VALID,347,VALID,1.17969,
2009-12-22, 01:00:04,VALID,1005.89,VALID,0.5,VALID,95.2237,VALID,0,VALID,22.8455,VALID,340,VALID,0.498047,
2009-12-22, 01:01:04,VALID,1005.88,VALID,0,VALID,95.2313,VALID,0,VALID,22.8649,VALID,330,VALID,0.239844,
2009-12-22, 01:02:04,VALID,1005.88,VALID,0,VALID,95.2313,VALID,0,VALID,22.8649,VALID,334,VALID,0.951172,
2009-12-22, 01:03:04,VALID,1005.87,VALID,0,VALID,95.2237,VALID,0,VALID,22.8649,VALID,326,VALID,1.20234,
2009-12-22, 01:04:04,VALID,1005.89,VALID,0,VALID,95.2466,VALID,0,VALID,22.8455,VALID,309,VALID,0.536328,
2009-12-22, 01:05:04,VALID,1005.87,VALID,0.5,VALID,95.2542,VALID,0,VALID,22.8455,VALID,342,VALID,0.80625,
2009-12-22, 01:06:04,VALID,1005.82,VALID,0,VALID,95.2618,VALID,0,VALID,22.8667,VALID,352,VALID,0.937891,
2009-12-22, 01:07:04,VALID,1005.86,VALID,0,VALID,95.2542,VALID,0,VALID,22.826,VALID,270,VALID,0.913672,
2009-12-22, 01:08:04,VALID,1005.87,VALID,0,VALID,95.2542,VALID,0,VALID,22.8667,VALID,353,VALID,0.421094,
2009-12-22, 01:09:04,VALID,1005.85,VALID,0,VALID,95.2618,VALID,0,VALID,22.8667,VALID,350,VALID,0.255859,
2009-12-22, 01:10:04,VALID,1005.83,VALID,0.5,VALID,95.2542,VALID,0,VALID,22.8472,VALID,355,VALID,1.65234,
2009-12-22, 01:11:04,VALID,1005.81,VALID,0,VALID,95.2695,VALID,0,VALID,22.8472,VALID,334,VALID,0.807031,
2009-12-22, 01:12:04,VALID,1005.78,VALID,0,VALID,95.2695,VALID,0,VALID,22.8455,VALID,2,VALID,1.10234,
2009-12-22, 01:13:04,VALID,1005.75,VALID,0,VALID,95.2847,VALID,0,VALID,22.8472,VALID,354,VALID,0.420703,
2009-12-22, 01:14:04,VALID,1005.74,VALID,0,VALID,95.2695,VALID,0,VALID,22.826,VALID,3,VALID,0.770312,
2009-12-22, 01:15:04,VALID,1005.73,VALID,0,VALID,95.2771,VALID,0,VALID,22.8472,VALID,353,VALID,0.0914062,
2009-12-22, 01:16:04,VALID,1005.74,VALID,0.5,VALID,95.3,VALID,0,VALID,22.8455,VALID,332,VALID,0.649609,
2009-12-22, 01:17:04,VALID,1005.72,VALID,0,VALID,95.3,VALID,0,VALID,22.8667,VALID,340,VALID,0.957031,
2009-12-22, 01:18:04,VALID,1005.69,VALID,0,VALID,95.2771,VALID,0,VALID,22.8667,VALID,352,VALID,0.948438,
2009-12-22, 01:19:04,VALID,1005.7,VALID,0,VALID,95.3152,VALID,0,VALID,22.8455,VALID,315,VALID,0.146094,
2009-12-22, 01:20:04,VALID,1005.71,VALID,0,VALID,95.3305,VALID,0,VALID,22.8649,VALID,355,VALID,0.635156,
2009-12-22, 01:21:04,VALID,1005.7,VALID,0.5,VALID,95.3152,VALID,0,VALID,22.8649,VALID,351,VALID,0.429297,
2009-12-22, 01:22:04,VALID,1005.65,VALID,0,VALID,95.3305,VALID,0,VALID,22.9056,VALID,352,VALID,0.503125,
2009-12-22, 01:23:04,VALID,1005.68,VALID,0,VALID,95.3381,VALID,0,VALID,22.9251,VALID,352,VALID,0.437891,
2009-12-22, 01:24:04,VALID,1005.67,VALID,0,VALID,95.361,VALID,0,VALID,22.9445,VALID,356,VALID,0.670703,
2009-12-22, 01:25:04,VALID,1005.67,VALID,0,VALID,95.3839,VALID,0,VALID,22.9445,VALID,28,VALID,0.701563,
2009-12-22, 01:26:04,VALID,1005.65,VALID,0.5,VALID,95.4068,VALID,0,VALID,22.9622,VALID,27,VALID,0.635938,
2009-12-22, 01:27:04,VALID,1005.68,VALID,0,VALID,95.3915,VALID,0,VALID,22.9834,VALID,325,VALID,0.802344,
2009-12-22, 01:28:04,VALID,1005.69,VALID,0,VALID,95.3915,VALID,0,VALID,23.0029,VALID,306,VALID,0.233594,
2009-12-22, 01:29:04,VALID,1005.68,VALID,0,VALID,95.4068,VALID,0,VALID,23.0029,VALID,305,VALID,0.341406,
2009-12-22, 01:30:04,VALID,1005.7,VALID,0,VALID,95.4373,VALID,0,VALID,23.0224,VALID,303,VALID,0.448047,
2009-12-22, 01:31:04,VALID,1005.7,VALID,0,VALID,95.422,VALID,0,VALID,23.0418,VALID,294,VALID,0.868359,
2009-12-22, 01:32:04,VALID,1005.68,VALID,0.5,VALID,95.4373,VALID,0,VALID,23.0206,VALID,10,VALID,0.174609,
2009-12-22, 01:33:04,VALID,1005.67,VALID,0,VALID,95.4373,VALID,0,VALID,23.0206,VALID,321,VALID,0.124609,
2009-12-22, 01:34:04,VALID,1005.62,VALID,0,VALID,95.4449,VALID,0,VALID,23.0613,VALID,4,VALID,1.04531,
2009-12-22, 01:35:04,VALID,1005.61,VALID,0,VALID,95.4526,VALID,0,VALID,23.0613,VALID,289,VALID,0.894922,
2009-12-22, 01:36:04,VALID,1005.61,VALID,0,VALID,95.4526,VALID,0,VALID,23.0595,VALID,292,VALID,0.660937,
2009-12-22, 01:37:04,VALID,1005.56,VALID,0,VALID,95.4602,VALID,0,VALID,23.0807,VALID,300,VALID,0,
2009-12-22, 01:38:04,VALID,1005.55,VALID,0,VALID,95.4907,VALID,0,VALID,23.0595,VALID,300,VALID,0,
2009-12-22, 01:39:04,VALID,1005.57,VALID,0.5,VALID,95.4831,VALID,0,VALID,23.0807,VALID,283,VALID,0.367969,
2009-12-22, 01:40:04,VALID,1005.58,VALID,0,VALID,95.4754,VALID,0,VALID,23.1002,VALID,282,VALID,0.201172,
2009-12-22, 01:41:04,VALID,1005.56,VALID,0,VALID,95.4831,VALID,0,VALID,23.0984,VALID,299,VALID,1.23789,
2009-12-22, 01:42:04,VALID,1005.52,VALID,0,VALID,95.4831,VALID,0,VALID,23.079,VALID,302,VALID,0.423438,
2009-12-22, 01:43:04,VALID,1005.51,VALID,0,VALID,95.506,VALID,0,VALID,23.0595,VALID,301,VALID,0.13125,
2009-12-22, 01:44:04,VALID,1005.5,VALID,0,VALID,95.4831,VALID,0,VALID,23.0595,VALID,309,VALID,0.308984,
2009-12-22, 01:45:04,VALID,1005.53,VALID,0,VALID,95.4983,VALID,0,VALID,23.1002,VALID,310,VALID,0.197656,
2009-12-22, 01:46:04,VALID,1005.5,VALID,0,VALID,95.4983,VALID,0,VALID,23.1002,VALID,310,VALID,0.00117188,
2009-12-22, 01:47:04,VALID,1005.52,VALID,0,VALID,95.5136,VALID,0,VALID,23.0807,VALID,304,VALID,0.584766,
2009-12-22, 01:48:04,VALID,1005.52,VALID,0,VALID,95.506,VALID,0,VALID,23.0807,VALID,3,VALID,1.03047,
2009-12-22, 01:49:04,VALID,1005.55,VALID,0,VALID,95.5212,VALID,0,VALID,23.0807,VALID,335,VALID,0.387109,
2009-12-22, 01:50:04,VALID,1005.58,VALID,0,VALID,95.5136,VALID,0,VALID,23.0401,VALID,299,VALID,0.919531,
2009-12-22, 01:51:04,VALID,1005.58,VALID,0,VALID,95.5212,VALID,0,VALID,23.0807,VALID,279,VALID,0.766016,
2009-12-22, 01:52:04,VALID,1005.61,VALID,0,VALID,95.5517,VALID,0,VALID,23.1002,VALID,295,VALID,0.467578,
2009-12-22, 01:53:04,VALID,1005.56,VALID,0.5,VALID,95.5441,VALID,0,VALID,23.0595,VALID,275,VALID,0.262891,
2009-12-22, 01:54:04,VALID,1005.58,VALID,0,VALID,95.5441,VALID,0,VALID,23.079,VALID,277,VALID,0.261328,
2009-12-22, 01:55:04,VALID,1005.57,VALID,0,VALID,95.5594,VALID,0,VALID,23.079,VALID,353,VALID,0.780469,
2009-12-22, 01:56:04,VALID,1005.59,VALID,0,VALID,95.5441,VALID,0,VALID,23.0578,VALID,331,VALID,0.736328,
2009-12-22, 01:57:04,VALID,1005.58,VALID,0,VALID,95.5365,VALID,0,VALID,23.1197,VALID,21,VALID,0.55,
2009-12-22, 01:58:04,VALID,1005.57,VALID,0,VALID,95.5746,VALID,0,VALID,23.1197,VALID,357,VALID,0.585156,
2009-12-22, 01:59:04,VALID,1005.57,VALID,0,VALID,95.5517,VALID,0,VALID,23.0984,VALID,358,VALID,0.929688,
2009-12-22, 02:00:04,VALID,1005.54,VALID,0,VALID,95.5822,VALID,0,VALID,23.1391,VALID,347,VALID,0.669531,
2009-12-22, 02:01:04,VALID,1005.56,VALID,0,VALID,95.5594,VALID,0,VALID,23.1179,VALID,358,VALID,1.01016,
2009-12-22, 02:02:04,VALID,1005.54,VALID,0,VALID,95.5822,VALID,0,VALID,23.1179,VALID,355,VALID,0.666797,
2009-12-22, 02:03:04,VALID,1005.53,VALID,0,VALID,95.5746,VALID,0,VALID,23.1391,VALID,323,VALID,0.803516,
2009-12-22, 02:04:04,VALID,1005.54,VALID,0,VALID,95.5975,VALID,0,VALID,23.1179,VALID,345,VALID,0.948438,
2009-12-22, 02:05:04,VALID,1005.52,VALID,0,VALID,95.5899,VALID,0,VALID,23.1179,VALID,356,VALID,0.865234,
2009-12-22, 02:06:04,VALID,1005.54,VALID,0,VALID,95.5822,VALID,0,VALID,23.1179,VALID,349,VALID,0.690625,
2009-12-22, 02:07:04,VALID,1005.52,VALID,0,VALID,95.5899,VALID,0,VALID,23.0984,VALID,352,VALID,0.648438,
2009-12-22, 02:08:04,VALID,1005.53,VALID,0,VALID,95.5822,VALID,0,VALID,23.1179,VALID,345,VALID,0.576953,
2009-12-22, 02:09:04,VALID,1005.55,VALID,0,VALID,95.6051,VALID,0,VALID,23.1391,VALID,355,VALID,0.732813,
2009-12-22, 02:10:04,VALID,1005.54,VALID,0,VALID,95.5746,VALID,0,VALID,23.1197,VALID,339,VALID,1.01484,
2009-12-22, 02:11:04,VALID,1005.55,VALID,0,VALID,95.5899,VALID,0,VALID,23.0984,VALID,8,VALID,1.25508,
2009-12-22, 02:12:04,VALID,1005.5,VALID,0,VALID,95.6128,VALID,0,VALID,23.0984,VALID,355,VALID,1.59531,
2009-12-22, 02:13:04,VALID,1005.5,VALID,0,VALID,95.6051,VALID,0,VALID,23.1197,VALID,2,VALID,0.960156,
2009-12-22, 02:14:04,VALID,1005.44,VALID,0,VALID,95.5899,VALID,0,VALID,23.1179,VALID,351,VALID,0.721094,
2009-12-22, 02:15:04,VALID,1005.42,VALID,0,VALID,95.5746,VALID,0,VALID,23.1179,VALID,360,VALID,0.725781,
2009-12-22, 02:16:04,VALID,1005.44,VALID,0,VALID,95.5822,VALID,0,VALID,23.1197,VALID,360,VALID,0.425781,
2009-12-22, 02:17:04,VALID,1005.42,VALID,0,VALID,95.5822,VALID,0,VALID,23.1179,VALID,2,VALID,0.809375,
2009-12-22, 02:18:04,VALID,1005.41,VALID,0,VALID,95.5975,VALID,0,VALID,23.1391,VALID,353,VALID,0.931641,
2009-12-22, 02:19:04,VALID,1005.4,VALID,0,VALID,95.567,VALID,0,VALID,23.1179,VALID,356,VALID,0.219531,
2009-12-22, 02:20:04,VALID,1005.39,VALID,0,VALID,95.567,VALID,0,VALID,23.0984,VALID,355,VALID,0.778125,
2009-12-22, 02:21:04,VALID,1005.36,VALID,0,VALID,95.5517,VALID,0,VALID,23.1179,VALID,353,VALID,0.836328,
2009-12-22, 02:22:04,VALID,1005.36,VALID,0,VALID,95.567,VALID,0,VALID,23.0984,VALID,346,VALID,0.608594,
2009-12-22, 02:23:04,VALID,1005.38,VALID,0,VALID,95.5822,VALID,0,VALID,23.0984,VALID,350,VALID,1.37422,
2009-12-22, 02:24:04,VALID,1005.32,VALID,0,VALID,95.5594,VALID,0,VALID,23.1197,VALID,349,VALID,1.57227,
2009-12-22, 02:25:04,VALID,1005.33,VALID,0,VALID,95.5441,VALID,0,VALID,23.1179,VALID,357,VALID,0.274219,
2009-12-22, 02:26:04,VALID,1005.29,VALID,0,VALID,95.5365,VALID,0,VALID,23.1391,VALID,350,VALID,0.658594,
2009-12-22, 02:27:04,VALID,1005.3,VALID,0,VALID,95.567,VALID,0,VALID,23.1586,VALID,347,VALID,0.958203,
2009-12-22, 02:28:04,VALID,1005.24,VALID,0,VALID,95.5517,VALID,0,VALID,23.1586,VALID,282,VALID,0.589844,
2009-12-22, 02:29:04,VALID,1005.26,VALID,0,VALID,95.5594,VALID,0,VALID,23.1586,VALID,340,VALID,0.522266,
2009-12-22, 02:30:04,VALID,1005.24,VALID,0,VALID,95.5365,VALID,0,VALID,23.1586,VALID,3,VALID,0.596094,
2009-12-22, 02:31:04,VALID,1005.22,VALID,0,VALID,95.5365,VALID,0,VALID,23.1586,VALID,316,VALID,0.444922,
2009-12-22, 02:32:04,VALID,1005.18,VALID,0,VALID,95.5288,VALID,0,VALID,23.1586,VALID,354,VALID,1.08086,
2009-12-22, 02:33:04,VALID,1005.21,VALID,0,VALID,95.506,VALID,0,VALID,23.1179,VALID,349,VALID,0.653516,
2009-12-22, 02:34:04,VALID,1005.2,VALID,0,VALID,95.5288,VALID,0,VALID,23.1586,VALID,353,VALID,1.05508,
2009-12-22, 02:35:04,VALID,1005.2,VALID,0,VALID,95.4907,VALID,0,VALID,23.1391,VALID,337,VALID,0.991797,
2009-12-22, 02:36:04,VALID,1005.19,VALID,0,VALID,95.4907,VALID,0,VALID,23.0984,VALID,348,VALID,0.908984,
2009-12-22, 02:37:04,VALID,1005.2,VALID,0,VALID,95.4678,VALID,0,VALID,23.1391,VALID,337,VALID,0.626953,
2009-12-22, 02:38:04,VALID,1005.16,VALID,0,VALID,95.4526,VALID,0,VALID,23.1391,VALID,341,VALID,0.374609,
2009-12-22, 02:39:04,VALID,1005.19,VALID,0,VALID,95.4373,VALID,0,VALID,23.1391,VALID,345,VALID,0.517969,
2009-12-22, 02:40:04,VALID,1005.19,VALID,0,VALID,95.4297,VALID,0,VALID,23.1586,VALID,27,VALID,0.576172,
2009-12-22, 02:41:04,VALID,1005.19,VALID,0,VALID,95.4373,VALID,0,VALID,23.1179,VALID,2,VALID,0.687109,
2009-12-22, 02:42:04,VALID,1005.18,VALID,0,VALID,95.4144,VALID,0,VALID,23.1586,VALID,5,VALID,0.580078,
2009-12-22, 02:43:04,VALID,1005.17,VALID,0,VALID,95.3839,VALID,0,VALID,23.1179,VALID,19,VALID,0.7125,
2009-12-22, 02:44:04,VALID,1005.18,VALID,0,VALID,95.3915,VALID,0,VALID,23.1391,VALID,19,VALID,0,
2009-12-22, 02:45:04,VALID,1005.14,VALID,0,VALID,95.361,VALID,0,VALID,23.1391,VALID,5,VALID,0.876562,
2009-12-22, 02:46:04,VALID,1005.14,VALID,0,VALID,95.3534,VALID,0,VALID,23.1197,VALID,10,VALID,1.48516,
2009-12-22, 02:47:04,VALID,1005.15,VALID,0,VALID,95.3305,VALID,0,VALID,23.1391,VALID,11,VALID,1.17813,
2009-12-22, 02:48:04,VALID,1005.16,VALID,0,VALID,95.3229,VALID,0,VALID,23.1374,VALID,4,VALID,0.676562,
2009-12-22, 02:49:04,VALID,1005.14,VALID,0,VALID,95.2847,VALID,0,VALID,23.1391,VALID,355,VALID,0.469922,
2009-12-22, 02:50:04,VALID,1005.14,VALID,0,VALID,95.2695,VALID,0,VALID,23.0984,VALID,2,VALID,0.91875,
2009-12-22, 02:51:04,VALID,1005.11,VALID,0,VALID,95.2466,VALID,0,VALID,23.079,VALID,8,VALID,1.21172,
2009-12-22, 02:52:04,VALID,1005.11,VALID,0,VALID,95.1932,VALID,0.100563,VALID,23.1179,VALID,348,VALID,0.936328,
2009-12-22, 02:53:04,VALID,1005.08,VALID,0,VALID,95.1703,VALID,0,VALID,23.1603,VALID,359,VALID,0.558203,
2009-12-22, 02:54:04,VALID,1005.11,VALID,0,VALID,95.1245,VALID,0,VALID,23.1197,VALID,1,VALID,1.22227,
2009-12-22, 02:55:04,VALID,1005.11,VALID,0,VALID,95.0253,VALID,0,VALID,23.1391,VALID,11,VALID,0.524219,
2009-12-22, 02:56:04,VALID,1005.08,VALID,0,VALID,94.9796,VALID,0,VALID,23.1374,VALID,355,VALID,0.401563,
2009-12-22, 02:57:04,VALID,1005.11,VALID,0,VALID,94.9109,VALID,0,VALID,23.1374,VALID,358,VALID,1.01484,
2009-12-22, 02:58:04,VALID,1005.1,VALID,0,VALID,94.8575,VALID,0,VALID,23.1179,VALID,352,VALID,1.16992,
2009-12-22, 02:59:04,VALID,1005.07,VALID,0,VALID,94.7888,VALID,0,VALID,23.1586,VALID,1,VALID,1.26836,
2009-12-22, 03:00:04,VALID,1005.12,VALID,0,VALID,94.7202,VALID,0,VALID,23.1179,VALID,358,VALID,0.960938,
2009-12-22, 03:01:04,VALID,1005.1,VALID,0,VALID,94.6439,VALID,0,VALID,23.1374,VALID,2,VALID,0.743359,
2009-12-22, 03:02:04,VALID,1005.09,VALID,0,VALID,94.6286,VALID,0,VALID,23.1586,VALID,334,VALID,0.885156,
2009-12-22, 03:03:04,VALID,1005.11,VALID,0,VALID,94.5523,VALID,0,VALID,23.1391,VALID,28,VALID,1.65508,
2009-12-22, 03:04:04,VALID,1005.1,VALID,0,VALID,94.5066,VALID,0,VALID,23.1391,VALID,7,VALID,1.29766,
2009-12-22, 03:05:04,VALID,1005.12,VALID,0,VALID,94.4532,VALID,0,VALID,23.1179,VALID,355,VALID,1.16641,
2009-12-22, 03:06:04,VALID,1005.13,VALID,0,VALID,94.4074,VALID,0,VALID,23.1179,VALID,349,VALID,1.28203,
2009-12-22, 03:07:04,VALID,1005.08,VALID,0,VALID,94.354,VALID,0,VALID,23.1391,VALID,296,VALID,0.428516,
2009-12-22, 03:08:04,VALID,1005.11,VALID,0,VALID,94.3235,VALID,0,VALID,23.1179,VALID,325,VALID,0.682813,
2009-12-22, 03:09:04,VALID,1005.11,VALID,0,VALID,94.293,VALID,0.100563,VALID,23.1197,VALID,1,VALID,0.812109,
2009-12-22, 03:10:04,VALID,1005.09,VALID,0,VALID,94.2701,VALID,0,VALID,23.0984,VALID,14,VALID,1.55664,
2009-12-22, 03:11:04,VALID,1005.08,VALID,0,VALID,94.1633,VALID,0,VALID,23.1179,VALID,22,VALID,0.783984,
2009-12-22, 03:12:04,VALID,1005.07,VALID,0,VALID,94.1328,VALID,0,VALID,23.1586,VALID,7,VALID,0.466016,
2009-12-22, 03:13:04,VALID,1005.06,VALID,0,VALID,94.1251,VALID,0,VALID,23.1586,VALID,7,VALID,0.0832031,
2009-12-22, 03:14:04,VALID,1005.05,VALID,0,VALID,94.1251,VALID,0,VALID,23.1374,VALID,357,VALID,0.432813,
2009-12-22, 03:15:04,VALID,1005.02,VALID,0,VALID,94.0946,VALID,0.100563,VALID,23.1391,VALID,357,VALID,0.408203,
2009-12-22, 03:16:04,VALID,1005.03,VALID,0,VALID,94.1022,VALID,0.100563,VALID,23.1179,VALID,354,VALID,0.469531,
2009-12-22, 03:17:04,VALID,1005.05,VALID,0,VALID,94.1404,VALID,0,VALID,23.1179,VALID,353,VALID,0,
2009-12-22, 03:18:04,VALID,1005.02,VALID,0,VALID,94.1556,VALID,0,VALID,23.0984,VALID,353,VALID,0,
2009-12-22, 03:19:04,VALID,1005.06,VALID,0,VALID,94.2014,VALID,0,VALID,23.0984,VALID,348,VALID,0.326562,
2009-12-22, 03:20:04,VALID,1005.05,VALID,0,VALID,94.2472,VALID,0,VALID,23.1179,VALID,360,VALID,0.612109,
2009-12-22, 03:21:04,VALID,1005.03,VALID,0,VALID,94.3006,VALID,0,VALID,23.1179,VALID,1,VALID,0.479688,
2009-12-22, 03:22:04,VALID,1005.06,VALID,0,VALID,94.293,VALID,0,VALID,23.1179,VALID,356,VALID,0.224219,
2009-12-22, 03:23:04,VALID,1005.07,VALID,0.5,VALID,94.2777,VALID,0,VALID,23.1586,VALID,256,VALID,0.130469,
2009-12-22, 03:24:04,VALID,1005.07,VALID,0,VALID,94.2853,VALID,0.100563,VALID,23.1568,VALID,306,VALID,0.107813,
2009-12-22, 03:25:04,VALID,1005.08,VALID,0,VALID,94.2624,VALID,0,VALID,23.1374,VALID,331,VALID,0.637109,
2009-12-22, 03:26:04,VALID,1005.08,VALID,0,VALID,94.2396,VALID,0.100563,VALID,23.178,VALID,292,VALID,0.0667969,
2009-12-22, 03:27:04,VALID,1005.08,VALID,0,VALID,94.2396,VALID,0,VALID,23.1586,VALID,300,VALID,0.527344,
2009-12-22, 03:28:04,VALID,1005.09,VALID,0,VALID,94.209,VALID,0,VALID,23.178,VALID,298,VALID,0.817187,
2009-12-22, 03:29:04,VALID,1005.13,VALID,0,VALID,94.1709,VALID,0,VALID,23.1957,VALID,345,VALID,0.460156,
2009-12-22, 03:30:04,VALID,1005.11,VALID,0,VALID,94.087,VALID,0,VALID,23.217,VALID,321,VALID,1.25352,
2009-12-22, 03:31:04,VALID,1005.12,VALID,0,VALID,94.0107,VALID,0,VALID,23.2152,VALID,344,VALID,1.20078,
2009-12-22, 03:32:04,VALID,1005.12,VALID,0,VALID,93.9115,VALID,0.100563,VALID,23.2559,VALID,336,VALID,0.58125,
2009-12-22, 03:33:04,VALID,1005.14,VALID,0,VALID,93.82,VALID,0,VALID,23.2347,VALID,336,VALID,0,
2009-12-22, 03:34:04,VALID,1005.12,VALID,0,VALID,93.7742,VALID,0,VALID,23.2754,VALID,3,VALID,0.786719,
2009-12-22, 03:35:04,VALID,1005.1,VALID,0,VALID,93.7055,VALID,0,VALID,23.2541,VALID,348,VALID,1.13672,
2009-12-22, 03:36:04,VALID,1005.13,VALID,0,VALID,93.6216,VALID,0,VALID,23.2736,VALID,354,VALID,0.782031,
2009-12-22, 03:37:04,VALID,1005.16,VALID,0,VALID,93.5835,VALID,0,VALID,23.2931,VALID,319,VALID,0.275,
2009-12-22, 03:38:04,VALID,1005.17,VALID,0,VALID,93.5682,VALID,0,VALID,23.2948,VALID,319,VALID,0,
2009-12-22, 03:39:04,VALID,1005.15,VALID,0,VALID,93.5377,VALID,0,VALID,23.2736,VALID,296,VALID,0.491406,
2009-12-22, 03:40:04,VALID,1005.16,VALID,0,VALID,93.4919,VALID,0,VALID,23.3143,VALID,314,VALID,0.395703,
2009-12-22, 03:41:04,VALID,1005.15,VALID,0,VALID,93.4919,VALID,0,VALID,23.2931,VALID,346,VALID,0.649219,
2009-12-22, 03:42:04,VALID,1005.12,VALID,0,VALID,93.4538,VALID,0,VALID,23.3143,VALID,18,VALID,0.671094,
2009-12-22, 03:43:04,VALID,1005.14,VALID,0,VALID,93.3851,VALID,0,VALID,23.2931,VALID,349,VALID,0.685547,
2009-12-22, 03:44:04,VALID,1005.13,VALID,0,VALID,93.4004,VALID,0,VALID,23.2931,VALID,334,VALID,0.364844,
2009-12-22, 03:45:04,VALID,1005.14,VALID,0,VALID,93.4309,VALID,0,VALID,23.3337,VALID,315,VALID,0.0757812,